TimeCDT,TemperatureF,Dew PointF,Humidity,Sea Level PressureIn,VisibilityMPH,Wind Direction,Wind SpeedMPH,Gust SpeedMPH,PrecipitationIn,Events,Conditions,WindDirDegrees,DateUTC
12:53 AM,57.0,52.0,83,29.97,10.0,ENE,4.6,-,N/A,,Clear,70,2014-04-01 05:53:00
1:53 AM,57.0,53.1,87,29.98,10.0,East,3.5,-,N/A,,Clear,80,2014-04-01 06:53:00
2:53 AM,57.0,53.1,87,29.98,10.0,Calm,Calm,-,N/A,,Mostly Cloudy,0,2014-04-01 07:53:00
3:00 AM,57.0,53.1,87,29.98,10.0,ESE,3.5,-,N/A,Thunderstorm,Overcast,120,2014-04-01 08:00:00
3:44 AM,57.0,53.1,87,29.98,10.0,ENE,6.9,-,N/A,,Overcast,70,2014-04-01 08:44:00
3:53 AM,57.0,53.1,87,29.98,10.0,NE,8.1,-,N/A,,Overcast,40,2014-04-01 08:53:00
4:53 AM,57.9,54.0,87,29.99,9.0,NNE,3.5,-,N/A,,Overcast,20,2014-04-01 09:53:00
5:53 AM,57.9,55.0,90,29.99,9.0,Calm,Calm,-,N/A,,Overcast,0,2014-04-01 10:53:00
6:53 AM,57.9,55.0,90,30.00,8.0,Calm,Calm,-,N/A,,Overcast,0,2014-04-01 11:53:00
7:53 AM,57.9,55.0,90,30.01,6.0,Calm,Calm,-,N/A,,Overcast,0,2014-04-01 12:53:00
8:53 AM,59.0,55.0,87,30.01,9.0,ENE,4.6,-,N/A,,Overcast,60,2014-04-01 13:53:00
9:53 AM,61.0,55.0,81,30.02,10.0,ENE,9.2,-,N/A,,Overcast,70,2014-04-01 14:53:00
10:00 AM,61.0,55.9,83,30.02,10.0,ENE,9.2,-,N/A,,Overcast,60,2014-04-01 15:00:00
10:53 AM,62.1,55.9,80,30.04,10.0,ENE,8.1,-,N/A,,Overcast,60,2014-04-01 15:53:00
11:53 AM,64.9,55.9,73,30.02,10.0,ESE,5.8,-,N/A,,Overcast,110,2014-04-01 16:53:00
12:53 PM,70.0,57.9,65,29.99,10.0,Variable,4.6,-,N/A,,Overcast,0,2014-04-01 17:53:00
1:53 PM,71.1,57.9,63,29.97,10.0,East,4.6,-,N/A,,Overcast,90,2014-04-01 18:53:00
2:14 PM,73.9,57.9,57,29.97,10.0,SSW,6.9,-,N/A,,Overcast,200,2014-04-01 19:14:00
2:53 PM,75.0,57.9,55,29.94,10.0,SSE,8.1,-,N/A,,Mostly Cloudy,150,2014-04-01 19:53:00
3:53 PM,77.0,57.0,50,29.91,10.0,SSE,8.1,-,N/A,,Scattered Clouds,160,2014-04-01 20:53:00
4:53 PM,79.0,55.9,45,29.89,10.0,South,8.1,-,N/A,,Mostly Cloudy,170,2014-04-01 21:53:00
5:53 PM,77.0,55.9,48,29.88,10.0,ESE,8.1,-,N/A,,Partly Cloudy,120,2014-04-01 22:53:00
6:53 PM,77.0,55.9,48,29.87,10.0,South,8.1,-,N/A,,Clear,170,2014-04-01 23:53:00
7:53 PM,73.0,55.9,55,29.87,10.0,SSE,5.8,-,N/A,,Clear,150,2014-04-02 00:53:00
8:53 PM,71.1,55.9,59,29.87,10.0,SSE,9.2,-,N/A,,Clear,160,2014-04-02 01:53:00
9:53 PM,68.0,57.0,68,29.88,10.0,SE,5.8,-,N/A,,Clear,130,2014-04-02 02:53:00
10:53 PM,66.0,57.9,75,29.89,10.0,ESE,5.8,-,N/A,,Clear,120,2014-04-02 03:53:00
11:53 PM,64.0,57.9,80,29.89,10.0,ENE,5.8,-,N/A,,Scattered Clouds,70,2014-04-02 04:53:00